Billings, MT

3:18 AM MDT on August 26, 2016 (GMT -0600)
Billings Logan International

Weather History for KBIL - July, 2013

Change the Weather History Date:

Tuesday, July 16, 2013

  Actual Average Record
Temperature  
Mean Temperature 67 °F 73 °F  
Max Temperature 74 °F 87 °F 103 °F (1966)
Min Temperature 60 °F 59 °F 42 °F (1999)
Degree Days  
Heating Degree Days 0 0  
Month to date heating degree days 0 12  
Since 1 June heating degree days 73 108  
Since 1 July heating degree days 0 12  
Cooling Degree Days 2 9  
Month to date cooling degree days 167 117  
Year to date cooling degree days 290 219  
Since 1 June cooling degree days 263 202  
Growing Degree Days 20 (Base 50)    
Moisture  
Dew Point 48 °F    
Average Humidity 58    
Maximum Humidity 78    
Minimum Humidity 38    
Precipitation  
Precipitation T in 0.04 in 0.56 in (1938)
Month to date precipitation 0.51 0.74  
Year to date precipitation 7.83 8.72  
Snow  
Snow 0.00 in 0.00 in T in (1949)
Month to date snowfall 0.0 0.0  
Since 1 June snowfall 0.0 0.0  
Since 1 July snowfall 0.0 0.0  
Snow Depth 0.00 in    
Sea Level Pressure  
Sea Level Pressure 30.13 in    
Wind  
Wind Speed 9 mph (NE)    
Max Wind Speed 30 mph    
Max Gust Speed 36 mph    
Visibility 10 miles    
Events Rain    
T = Trace of Precipitation, MM = Missing Value Source: NWS Daily Summary

Daily Weather History Graph

Daily Weather History Graph

Search for Another Location

Airport or City:

Trip Planner

Search our weather history database for the weather conditions in past years. The results will help you decide how hot, cold, wet, or windy it might be!

Date:

Astronomy

Jul. 16, 2013 Rise Set
Actual Time 5:40 AM MDT 8:59 PM MDT
Civil Twilight 5:03 AM MDT 9:36 PM MDT
Nautical Twilight 4:15 AM MDT 10:23 PM MDT
Astronomical Twilight 3:15 AM MDT 11:23 PM MDT
Moon 2:37 PM MDT (7/16) 12:21 AM MDT (7/16)
Length of Visible Light 16h 32m
Length of Day
15h 19m
First Quarter, 57% of the Moon is Illuminated
Jul 16
First Quarter
Jul 22
Full
Jul 29
Last Quarter
Aug 6
New
Aug 14
First Quarter

Hourly Weather History & Observations

Time (MDT) Temp. Dew Point Humidity Pressure Visibility Wind Dir Wind Speed Gust Speed Precip Events Conditions
12:53 AM 75.9 °F 48.9 °F 38% 29.86 in 10.0 mi North 25.3 mph 38.0 mph N/A   Partly Cloudy
1:53 AM 69.1 °F 52.0 °F 54% 29.91 in 10.0 mi NNE 19.6 mph 31.1 mph N/A   Clear
2:53 AM 66.0 °F 52.0 °F 60% 29.96 in 10.0 mi NNE 21.9 mph 32.2 mph N/A   Clear
3:53 AM 64.0 °F 51.1 °F 63% 30.03 in 10.0 mi NNE 13.8 mph - N/A   Clear
4:53 AM 62.1 °F 46.9 °F 58% 30.07 in 10.0 mi North 12.7 mph - N/A   Partly Cloudy
5:53 AM 60.1 °F 45.0 °F 57% 30.12 in 10.0 mi NNE 8.1 mph - N/A   Partly Cloudy
6:53 AM 60.1 °F 44.1 °F 55% 30.14 in 10.0 mi NNE 9.2 mph - N/A   Partly Cloudy
7:53 AM 61.0 °F 44.1 °F 54% 30.16 in 10.0 mi NNE 9.2 mph - N/A   Mostly Cloudy
8:53 AM 62.1 °F 44.1 °F 52% 30.17 in 10.0 mi NNE 9.2 mph - N/A   Mostly Cloudy
9:53 AM 63.0 °F 41.0 °F 45% 30.17 in 10.0 mi NE 12.7 mph - N/A   Mostly Cloudy
10:53 AM 63.0 °F 44.1 °F 50% 30.17 in 10.0 mi East 10.4 mph - N/A   Mostly Cloudy
11:53 AM 64.0 °F 43.0 °F 46% 30.17 in 10.0 mi East 8.1 mph - N/A   Mostly Cloudy
12:53 PM 64.9 °F 45.0 °F 48% 30.17 in 10.0 mi East 9.2 mph - N/A   Mostly Cloudy
1:53 PM 64.9 °F 46.0 °F 50% 30.18 in 10.0 mi ESE 8.1 mph - 0.00 in Rain Light Rain
2:53 PM 66.9 °F 46.9 °F 49% 30.17 in 10.0 mi East 3.5 mph - 0.00 in   Overcast
3:53 PM 66.0 °F 48.0 °F 52% 30.22 in 10.0 mi West 10.4 mph - N/A   Overcast
4:53 PM 64.9 °F 48.0 °F 54% 30.19 in 10.0 mi Calm Calm - N/A   Mostly Cloudy
5:53 PM 64.9 °F 50.0 °F 58% 30.19 in 10.0 mi Calm Calm - 0.00 in   Overcast
6:53 PM 64.9 °F 50.0 °F 58% 30.14 in 10.0 mi ESE 11.5 mph - 0.00 in   Overcast
7:53 PM 66.0 °F 50.0 °F 56% 30.16 in 10.0 mi Calm Calm - 0.00 in   Mostly Cloudy
8:53 PM 64.9 °F 51.1 °F 61% 30.15 in 10.0 mi NNW 8.1 mph - N/A   Mostly Cloudy
9:53 PM 63.0 °F 53.1 °F 70% 30.17 in 10.0 mi NNE 5.8 mph - N/A   Scattered Clouds
10:53 PM 61.0 °F 53.1 °F 75% 30.17 in 10.0 mi NNE 8.1 mph - N/A   Partly Cloudy
11:53 PM 61.0 °F 53.1 °F 75% 30.17 in 10.0 mi North 8.1 mph - N/A   Partly Cloudy